DW8356 Weather Reports


Display with metric or nautical units.
time (UTC)temp
F
wind
direction
speed
MPH
gust
MPH
rain 1hr
in
rain 24hr
in
rain mn
in
humidity
%
barometer
mb
20210515080109 64 136 0.0 2.0 0.00 0.00 0.00 75 1020.6
20210515074531 64 145 0.0 8.0 0.00 0.00 0.00 75 1020.6
20210515073039 64 93 0.0 3.0 0.00 0.00 0.00 75 1020.6
20210515071534 64 141 0.0 3.0 0.00 0.00 0.00 75 1020.5
20210515070024 64 151 0.0 6.0 0.00 0.00 0.00 75 1020.4
20210515064602 65 149 0.0 4.0 0.00 0.00 0.00 74 1020.5
20210515063048 65 142 0.0 5.0 0.00 0.00 0.00 73 1020.4
20210515061527 65 131 0.0 5.0 0.00 0.00 0.00 72 1020.6
20210515060050 65 85 0.0 4.0 0.00 0.00 0.00 73 1020.4
20210515054557 65 136 0.0 3.0 0.00 0.00 0.00 73 1020.3
20210515051520 66 139 0.0 7.0 0.00 0.00 0.00 74 1020.2
20210515050015 66 135 0.0 7.0 0.00 0.00 0.00 75 1020.5
20210515044520 66 140 0.0 4.0 0.00 0.00 0.00 76 1020.5
20210515043029 66 154 0.0 5.0 0.00 0.00 0.00 75 1020.7
20210515041518 67 141 0.0 3.0 0.00 0.00 0.00 75 1020.9
20210515040037 67 141 0.0 5.0 0.00 0.00 0.00 74 1020.9
20210515034522 67 135 0.0 6.0 0.00 0.00 0.00 73 1020.5
20210515033008 67 166 0.0 3.0 0.00 0.00 0.00 72 1020.5
20210515031508 68 139 0.0 6.0 0.00 0.00 0.00 71 1020.4
20210515030010 68 151 0.0 0.0 0.00 0.00 0.00 70 1020.1
20210515024531 68 155 0.0 5.0 0.00 0.00 0.00 68 1019.7
20210515023147 69 168 0.0 8.0 0.00 0.00 0.00 68 1019.3
20210515020104 70 183 0.0 5.0 0.00 0.00 0.00 66 1019.2
20210515013142 71 156 0.0 7.0 0.00 0.00 0.00 63 1019.4
20210515010055 72 162 0.0 10.0 0.00 0.00 0.00 60 1019.4
20210515004507 73 149 2.0 10.0 0.00 0.00 0.00 58 1019.5
20210515001606 75 149 1.0 8.0 0.00 0.00 0.00 56 1019.9
20210515000041 76 146 2.0 16.0 0.00 0.00 0.00 53 1020.1
20210514233054 78 153 2.0 8.0 0.00 0.00 0.00 52 1020.6
20210514231505 78 183 1.0 7.0 0.00 0.00 0.00 51 1020.6
20210514230010 79 148 2.0 11.0 0.00 0.00 0.00 51 1020.8
20210514223106 78 153 1.0 11.0 0.00 0.00 0.00 51 1021.1
20210514221608 79 183 2.0 10.0 0.00 0.00 0.00 50 1021.3
20210514214634 77 160 0.0 9.0 0.00 0.00 0.00 53 1021.6
20210514211649 78 148 3.0 12.0 0.00 0.00 0.00 50 1021.9
20210514204651 77 164 3.0 11.0 0.00 0.00 0.00 53 1022.4
20210514203004 79 137 1.0 7.0 0.00 0.00 0.00 50 1022.7
20210514201631 78 153 0.0 11.0 0.00 0.00 0.00 52 1023.0
20210514194657 76 177 2.0 9.0 0.00 0.00 0.00 56 1023.3
20210514193006 76 166 1.0 7.0 0.00 0.00 0.00 56 1023.4
20210514191623 76 185 4.0 11.0 0.00 0.00 0.00 54 1023.6
20210514184526 76 179 4.0 11.0 0.00 0.00 0.00 53 1023.9
20210514181522 75 146 1.0 11.0 0.00 0.00 0.00 54 1024.1
20210514174536 74 159 0.0 8.0 0.00 0.00 0.00 55 1024.5
20210514171534 72 82 1.0 12.0 0.00 0.00 0.00 55 1024.7
20210514170015 71 198 3.0 11.0 0.00 0.00 0.00 55 1024.9
20210514163042 70 164 2.0 10.0 0.00 0.00 0.00 55 1025.2
20210514160147 69 174 2.0 13.0 0.00 0.00 0.00 54 1025.4
20210514153036 68 160 0.0 8.0 0.00 0.00 0.00 57 1025.6
20210514151547 67 164 0.0 8.0 0.00 0.00 0.00 59 1025.7
20210514150017 66 177 0.0 9.0 0.00 0.00 0.00 60 1025.7
20210514144517 66 169 2.0 9.0 0.00 0.00 0.00 61 1025.8
20210514143030 65 175 0.0 8.0 0.00 0.00 0.00 64 1025.7
20210514141513 64 171 0.0 7.0 0.00 0.00 0.00 63 1025.8
20210514140004 64 158 0.0 7.0 0.00 0.00 0.00 66 1025.7
20210514133157 63 161 0.0 2.0 0.00 0.00 0.00 71 1025.4
20210514131733 62 145 0.0 2.0 0.00 0.00 0.00 72 1025.3
20210514130204 62 150 0.0 5.0 0.00 0.00 0.00 73 1025.2
20210514124743 61 135 0.0 3.0 0.00 0.00 0.00 72 1024.9
20210514123102 61 162 0.0 2.0 0.00 0.00 0.00 73 1024.8
20210514121715 60 153 0.0 1.0 0.00 0.00 0.00 73 1024.7
20210514120159 60 151 0.0 2.0 0.00 0.00 0.00 73 1024.3
20210514114653 60 147 0.0 0.0 0.00 0.00 0.00 73 1024.3
20210514113201 60 147 0.0 0.0 0.00 0.00 0.00 73 1024.4
20210514111705 60 147 0.0 1.0 0.00 0.00 0.00 72 1024.2
20210514110101 60 131 0.0 3.0 0.00 0.00 0.00 71 1024.1
20210514104646 60 154 0.0 2.0 0.00 0.00 0.00 71 1024.1
20210514103147 60 126 0.0 6.0 0.00 0.00 0.00 71 1024.0
20210514101650 60 163 0.0 4.0 0.00 0.00 0.00 72 1024.1
20210514100124 59 141 0.0 3.0 0.00 0.00 0.00 73 1024.0
20210514094620 58 104 0.0 2.0 0.00 0.00 0.00 76 1024.0
20210514093054 56 103 0.0 0.0 0.00 0.00 0.00 82 1024.1
20210514091726 55 166 0.0 0.0 0.00 0.00 0.00 84 1024.2
20210514090156 56 186 0.0 0.0 0.00 0.00 0.00 83 1024.1
20210514084642 56 186 0.0 0.0 0.00 0.00 0.00 82 1024.1
20210514083146 56 186 0.0 0.0 0.00 0.00 0.00 81 1024.2